Temp
61 61 61 61 60 60 60 61 61 60 61 61 61 61 61 60 60 53 47 58 58 67 69 68 69 68 66 60 63 64 49 48 51 56 63 76 74 83 86 84 84 82 81 85 88
61 61 60 60 60 60 60 60 60 60 60 61 60 60 60 60 52 48 60 66 67 69 64 62 62 65 57 58 60 55 50 52 60 64 68 72 75 79 79 78 76 81 84 84 83
60 60 60 60 60 60 60 60 60 61 60 60 60 60 60 58 47 57 69 67 69 70 68 67 66 63 55 55 57 55 52 61 67 69 74 74 72 78 75 71 75 75 80 80 79
59 60 60 60 59 59 59 60 60 60 60 60 60 60 60 52 49 69 74 73 69 70 68 66 61 52 51 52 59 50 62 65 68 70 74 73 76 76 76 77 81 80 80 80 78
59 59 59 59 59 59 59 59 59 59 59 59 60 60 53 45 50 71 73 72 70 68 66 63 57 54 49 55 57 54 62 66 70 71 68 76 74 75 78 83 83 83 81 77 76
58 58 59 59 59 58 58 58 58 58 59 59 60 60 49 46 71 73 70 69 69 66 63 62 61 61 56 57 56 62 64 67 67 69 66 67 69 73 76 80 80 80 77 77 76
58 58 58 58 58 58 58 57 57 57 58 59 60 59 51 53 74 71 70 65 68 70 66 68 69 63 60 58 67 66 59 63 67 66 66 69 62 65 76 78 77 77 75 77 79
58 58 58 58 58 58 58 57 57 58 59 59 60 56 47 68 67 68 71 72 72 73 74 75 72 64 60 63 65 60 57 53 63 66 69 67 55 70 76 74 73 75 75 76 76
58 58 58 58 58 58 57 57 57 59 60 59 52 48 49 70 69 74 75 74 74 74 74 81 71 61 61 55 50 51 46 49 56 65 66 62 56 69 74 72 70 72 72 75 75
58 57 57 58 58 57 57 56 57 57 60 60 59 47 57 66 74 79 78 79 73 72 70 68 60 54 51 49 41 47 48 51 53 62 60 57 60 65 70 69 68 69 71 72 73
58 57 57 57 57 56 54 48 51 49 52 51 57 57 67 75 79 76 79 76 73 65 55 59 51 47 53 56 58 56 55 53 57 66 62 61 61 64 65 65 63 65 65 67 71
57 57 57 57 57 56 53 45 58 62 52 59 63 63 70 73 68 73 79 66 63 55 58 54 48 58 63 62 60 58 53 53 59 64 58 56 57 62 64 64 65 66 66 67 64
56 56 57 57 56 52 47 52 63 65 52 64 63 64 66 70 66 68 73 67 62 56 56 50 58 65 63 60 58 57 54 54 55 60 60 56 52 56 64 65 67 66 63 64 64
56 56 56 56 52 52 52 62 61 63 44 57 62 68 70 69 63 76 75 69 62 58 58 55 65 63 61 59 60 50 62 61 58 51 44 55 39 49 57 60 61 60 59 61 62
56 56 56 55 46 50 64 61 64 61 34 63 64 76 71 64 65 67 75 67 59 59 58 54 59 59 57 60 64 56 63 59 56 48 44 48 41 48 53 53 55 57 59 60 62
55 56 56 52 47 54 61 62 62 47 35 58 67 64 61 64 65 69 68 71 68 59 60 57 66 64 61 66 65 65 57 52 48 44 36 45 44 43 49 54 55 57 60 62 61
55 55 54 57 53 60 59 58 42 36 62 58 58 62 60 59 61 62 60 57 52 46 47 55 56 63 67 57 61 57 46 34 33 33 34 48 44 46 54 58 59 57 59 61 63
54 53 51 56 55 59 58 49 35 54 55 67 65 62 55 59 59 61 56 51 56 54 49 44 44 59 64 59 53 51 48 35 30 30 35 48 40 49 58 60 62 64 62 61 61
53 50 53 58 60 60 51 38 43 55 63 60 62 55 55 61 61 60 54 53 57 56 47 46 48 62 64 65 60 51 44 51 41 41 35 40 48 55 60 60 61 60 60 59 59
47 46 53 65 64 57 46 43 51 65 64 63 52 57 49 54 55 55 55 57 59 62 59 50 42 57 60 63 60 55 59 41 39 31 28 40 46 46 50 54 58 57 57 58 59
45 47 62 66 65 51 41 46 59 67 66 58 54 52 53 53 53 50 54 58 60 58 57 51 45 46 53 49 46 48 46 48 44 39 27 26 39 54 54 53 55 57 60 56 54
44 42 63 66 50 47 45 56 56 65 66 62 59 57 53 53 51 50 50 54 63 60 49 49 43 38 44 53 57 51 47 45 33 35 37 34 37 58 59 58 56 55 56 54 54
40 44 60 63 44 44 53 58 58 59 61 58 55 56 54 50 45 52 53 59 60 56 51 49 39 32 38 44 48 45 50 48 43 38 36 33 35 60 61 59 57 51 52 54 54
41 39 50 54 53 50 49 53 54 62 61 59 56 55 49 47 48 47 50 56 60 57 58 53 41 37 32 39 42 40 46 48 41 32 35 37 42 53 56 53 51 51 52 50 51
42 43 48 42 49 47 49 53 52 52 58 57 51 51 46 39 42 42 46 49 54 55 50 45 37 40 44 47 47 45 47 48 45 42 35 41 42 50 49 49 49 49 51 52 50
41 45 46 45 47 47 49 50 51 51 52 50 46 49 47 40 40 37 41 40 41 47 42 42 35 38 39 46 46 44 47 47 49 47 47 49 46 49 49 48 48 49 50 49 50
51 52 46 44 46 44 46 49 52 52 53 53 49 46 43 44 45 43 44 44 43 39 39 38 37 37 31 43 43 35 44 47 49 51 52 44 46 46 45 47 46 45 47 48 48
MSLP
1019.77 1019.16 1018.82 1018.45 1018.12 1017.86 1017.57 1017.36 1017.08 1016.77 1016.46 1016.19 1015.92 1015.67 1015.53 1015.30 1014.94 1014.80 1013.92 1010.96 1010.83 1010.44 1010.92 1011.17 1011.10 1011.51 1011.81 1011.92 1011.57 1011.59 1012.25 1011.61 1010.71 1009.52 1008.09 1006.59 1005.99 1004.19 1004.89 1005.17 1004.16 1003.84 1004.19 1004.20 1004.38
1019.60 1019.15 1018.60 1018.23 1018.04 1017.71 1017.44 1017.22 1017.02 1016.67 1016.30 1016.01 1015.82 1015.60 1015.40 1015.27 1015.06 1014.00 1009.97 1010.01 1010.19 1010.28 1011.23 1011.39 1011.37 1011.44 1011.88 1011.72 1011.60 1011.54 1011.29 1010.39 1009.81 1008.82 1007.69 1007.35 1006.00 1005.42 1005.16 1005.94 1004.83 1004.69 1004.08 1004.05 1004.42
1019.64 1019.16 1018.64 1018.14 1017.77 1017.56 1017.16 1017.01 1016.76 1016.54 1016.26 1016.05 1015.82 1015.65 1015.52 1015.46 1014.85 1010.53 1008.26 1008.93 1009.80 1010.37 1010.72 1010.93 1011.09 1011.26 1011.65 1011.39 1011.15 1010.71 1010.32 1010.03 1008.81 1008.17 1007.63 1007.29 1006.24 1005.95 1005.82 1005.46 1005.36 1004.80 1004.97 1004.72 1004.91
1019.67 1019.13 1018.61 1018.11 1017.61 1017.35 1016.95 1016.56 1016.49 1016.34 1016.08 1015.86 1015.73 1015.56 1015.34 1015.34 1012.58 1007.96 1007.53 1007.59 1008.85 1009.78 1010.36 1010.50 1010.93 1011.26 1011.24 1011.00 1010.52 1010.42 1009.56 1009.13 1008.23 1007.66 1007.27 1006.26 1006.39 1005.44 1005.44 1004.82 1005.03 1005.15 1004.82 1005.03 1005.28
1019.54 1019.07 1018.60 1017.90 1017.43 1017.11 1016.78 1016.28 1015.97 1016.00 1015.90 1015.71 1015.47 1015.39 1015.23 1014.60 1011.04 1007.60 1007.52 1007.59 1008.79 1009.53 1010.03 1010.38 1010.66 1010.95 1010.85 1010.24 1009.80 1009.88 1009.09 1008.22 1007.61 1007.18 1007.04 1006.57 1006.37 1005.52 1004.79 1004.41 1004.70 1004.72 1004.99 1004.76 1004.92
1019.11 1018.83 1018.28 1017.80 1017.29 1016.73 1016.53 1016.15 1015.57 1015.41 1015.37 1015.36 1015.25 1015.23 1015.00 1012.84 1007.75 1007.29 1007.69 1008.24 1008.46 1009.20 1009.52 1009.62 1009.60 1009.88 1010.08 1009.33 1009.36 1008.23 1008.13 1007.51 1007.11 1006.45 1006.31 1006.31 1005.75 1005.08 1004.60 1004.47 1004.53 1004.66 1004.73 1004.92 1004.58
1018.79 1018.21 1017.87 1017.40 1016.88 1016.58 1015.94 1015.74 1015.42 1014.87 1014.73 1014.77 1014.94 1014.88 1014.03 1010.01 1007.51 1007.56 1007.81 1007.71 1008.01 1008.41 1008.83 1008.89 1008.67 1009.21 1009.16 1008.96 1007.81 1007.97 1007.96 1007.17 1006.78 1006.16 1005.85 1005.59 1005.69 1005.11 1004.36 1004.28 1004.39 1004.55 1004.72 1004.65 1004.73
1018.59 1018.01 1017.44 1017.02 1016.52 1016.02 1015.57 1015.05 1014.86 1014.56 1014.10 1014.27 1014.56 1014.50 1012.20 1007.84 1007.65 1007.78 1007.26 1007.47 1007.57 1007.89 1007.39 1007.10 1007.82 1008.53 1008.86 1008.03 1007.22 1007.43 1007.66 1007.23 1005.63 1005.67 1005.27 1005.26 1005.44 1004.76 1004.21 1004.31 1004.58 1004.49 1004.70 1004.64 1004.43
1018.17 1017.54 1017.01 1016.55 1015.92 1015.33 1014.80 1014.53 1013.93 1013.90 1013.66 1014.00 1014.46 1014.03 1010.40 1007.10 1006.96 1006.22 1006.32 1006.43 1006.48 1007.04 1006.95 1006.48 1007.27 1007.76 1007.64 1008.07 1007.42 1006.88 1007.19 1006.52 1005.53 1004.75 1004.88 1004.96 1005.19 1004.41 1003.94 1004.31 1004.46 1004.51 1004.57 1004.70 1004.54
1017.64 1017.12 1016.64 1016.06 1015.64 1015.09 1014.50 1013.56 1013.06 1013.41 1013.68 1014.04 1013.61 1013.41 1009.21 1006.58 1005.51 1005.25 1005.28 1005.83 1005.96 1006.09 1006.63 1006.36 1006.72 1007.23 1007.64 1007.97 1007.71 1007.05 1006.20 1005.65 1005.23 1004.81 1004.87 1005.12 1005.01 1004.15 1004.05 1004.25 1004.25 1004.52 1004.58 1004.80 1005.06
1017.24 1016.61 1016.10 1015.56 1014.93 1014.52 1014.41 1013.72 1013.18 1012.99 1012.89 1011.22 1009.98 1008.96 1006.95 1005.51 1004.79 1005.02 1004.94 1005.37 1005.68 1006.07 1006.67 1006.58 1007.09 1007.35 1007.11 1006.97 1006.56 1006.47 1006.18 1005.69 1005.13 1004.54 1004.75 1004.66 1004.82 1004.51 1004.53 1004.68 1004.80 1004.94 1005.13 1005.36 1005.59
1016.86 1016.23 1015.55 1014.73 1014.24 1013.86 1014.23 1013.58 1010.59 1009.83 1009.90 1008.64 1008.21 1007.71 1006.27 1005.74 1005.31 1004.75 1004.62 1005.52 1005.83 1006.38 1006.70 1007.34 1006.91 1006.20 1006.15 1006.22 1006.36 1006.18 1006.06 1005.61 1004.96 1004.45 1004.16 1004.23 1004.76 1004.56 1004.74 1004.78 1004.81 1005.10 1005.49 1005.51 1006.01
1016.43 1015.68 1014.96 1014.14 1013.46 1013.30 1013.07 1011.48 1009.25 1009.23 1009.16 1006.85 1006.39 1006.12 1005.46 1004.98 1004.71 1004.39 1004.65 1005.13 1005.77 1006.33 1006.63 1007.00 1005.98 1005.91 1006.02 1005.86 1006.06 1005.48 1005.48 1005.18 1005.09 1004.68 1004.78 1005.03 1005.51 1005.21 1004.61 1004.50 1004.56 1004.97 1005.56 1005.92 1006.63
1015.80 1015.16 1014.61 1013.75 1012.89 1012.58 1011.16 1008.44 1008.60 1009.02 1008.63 1006.35 1005.28 1004.26 1004.38 1004.45 1004.43 1004.04 1004.20 1004.98 1005.50 1006.02 1006.27 1006.36 1005.28 1005.39 1005.21 1005.07 1005.01 1004.83 1004.65 1004.92 1005.27 1005.91 1006.56 1006.29 1007.13 1006.43 1005.76 1005.64 1005.66 1005.62 1006.19 1006.74 1007.25
1015.27 1014.63 1014.17 1014.06 1013.50 1012.15 1008.95 1008.28 1008.29 1008.54 1007.73 1005.01 1004.17 1002.88 1003.49 1004.31 1004.03 1003.73 1003.93 1004.57 1005.14 1005.54 1006.13 1005.84 1005.15 1004.79 1004.40 1003.76 1003.72 1004.42 1004.45 1005.21 1006.03 1007.05 1007.49 1007.77 1008.14 1006.92 1006.43 1006.58 1006.58 1006.79 1007.02 1006.89 1007.18
1014.60 1013.88 1013.72 1013.02 1013.09 1009.87 1008.63 1008.59 1008.28 1008.63 1006.44 1004.11 1003.31 1003.25 1004.05 1004.14 1004.04 1003.74 1004.05 1004.42 1004.81 1005.36 1005.54 1005.49 1004.85 1004.31 1003.79 1003.55 1003.44 1004.04 1005.10 1006.30 1006.99 1008.06 1008.73 1008.26 1008.36 1007.51 1006.77 1006.57 1007.04 1007.26 1007.42 1007.35 1007.44
1013.67 1012.75 1012.95 1012.53 1010.34 1008.67 1008.89 1008.87 1008.92 1007.55 1004.96 1003.82 1003.41 1003.42 1003.78 1004.00 1004.14 1004.25 1004.27 1004.69 1005.16 1005.69 1005.59 1005.20 1004.70 1003.96 1003.66 1003.74 1004.11 1004.56 1005.97 1008.18 1009.11 1009.70 1009.60 1008.43 1008.22 1006.88 1005.94 1005.84 1006.47 1007.24 1007.49 1007.51 1007.54
1012.81 1011.61 1010.41 1010.07 1008.70 1009.17 1009.19 1009.39 1008.39 1006.04 1004.68 1003.01 1002.89 1003.27 1003.66 1003.66 1003.91 1004.07 1004.54 1005.03 1005.24 1005.62 1005.87 1005.80 1005.18 1004.21 1003.97 1004.15 1004.67 1005.36 1006.46 1008.58 1010.00 1010.84 1010.38 1009.03 1008.17 1006.94 1006.02 1006.35 1006.62 1006.91 1007.21 1007.29 1007.26
1012.18 1010.90 1009.85 1007.62 1007.86 1008.94 1009.60 1009.05 1007.03 1005.19 1003.68 1003.31 1002.77 1003.28 1003.55 1003.50 1003.57 1004.04 1004.58 1004.71 1004.63 1005.27 1005.87 1005.68 1005.38 1004.65 1004.45 1004.46 1004.98 1005.94 1007.11 1008.16 1009.76 1010.88 1011.20 1009.83 1008.24 1007.51 1007.07 1006.87 1007.13 1007.23 1007.31 1007.36 1007.35
1012.51 1011.18 1008.92 1006.15 1007.10 1008.38 1009.10 1007.99 1006.05 1003.98 1003.46 1003.28 1003.57 1003.47 1003.60 1003.35 1003.74 1004.26 1004.38 1004.83 1004.68 1004.49 1004.99 1005.69 1005.96 1005.60 1005.32 1005.10 1005.68 1006.12 1007.32 1008.86 1010.29 1011.80 1011.93 1010.18 1008.62 1007.60 1007.59 1007.29 1007.19 1007.31 1007.45 1007.53 1007.44
1012.68 1010.99 1006.45 1005.69 1006.82 1008.33 1008.28 1006.95 1005.19 1003.82 1003.28 1003.41 1003.73 1003.99 1004.19 1004.24 1004.40 1004.79 1005.12 1004.86 1004.81 1005.02 1005.29 1006.10 1006.83 1007.23 1006.66 1006.57 1006.68 1007.17 1007.73 1008.95 1010.40 1011.69 1012.25 1011.20 1009.14 1007.42 1007.40 1007.52 1007.49 1007.52 1007.30 1007.48 1008.25
1013.27 1011.10 1006.18 1006.17 1007.39 1007.65 1007.24 1005.84 1004.90 1003.85 1003.39 1003.37 1003.62 1004.19 1004.81 1004.99 1005.07 1005.34 1005.53 1005.39 1005.05 1005.61 1006.46 1007.14 1007.76 1008.40 1008.10 1007.57 1007.56 1007.78 1008.20 1008.93 1010.32 1011.90 1011.73 1010.90 1009.23 1007.73 1007.55 1007.60 1007.75 1007.94 1008.42 1008.42 1008.87
1013.74 1011.57 1006.57 1006.33 1007.43 1007.48 1006.42 1005.47 1004.97 1004.19 1003.53 1003.78 1004.41 1004.91 1005.56 1006.08 1006.23 1006.01 1006.03 1006.17 1005.89 1006.43 1006.99 1007.53 1008.71 1009.52 1009.27 1008.61 1008.28 1008.43 1008.42 1009.06 1009.89 1010.72 1010.84 1010.60 1009.37 1007.57 1007.46 1007.63 1008.51 1008.83 1009.12 1009.02 1009.47
1014.30 1012.37 1008.83 1007.21 1007.48 1007.63 1006.95 1005.76 1005.42 1004.77 1003.85 1004.21 1004.92 1005.42 1006.33 1007.16 1007.41 1007.30 1007.09 1007.23 1007.06 1007.39 1007.68 1007.97 1009.15 1009.69 1009.88 1009.57 1009.52 1009.35 1009.28 1009.40 1010.34 1010.97 1010.50 1009.66 1009.06 1008.16 1007.84 1008.38 1009.21 1009.49 1009.58 1009.98 1010.04
1014.05 1012.21 1010.80 1009.76 1008.52 1008.35 1007.53 1006.30 1005.83 1005.39 1005.06 1005.06 1006.03 1006.65 1007.37 1008.25 1008.58 1008.78 1008.80 1008.64 1008.43 1008.56 1008.87 1009.49 1010.19 1010.30 1010.06 1009.75 1009.55 1009.35 1009.18 1009.19 1009.78 1010.50 1010.25 1009.42 1009.11 1008.31 1008.55 1009.14 1009.76 1010.02 1010.24 1010.15 1010.16
1013.88 1012.52 1011.58 1010.76 1009.75 1008.93 1007.57 1006.96 1006.24 1006.15 1006.08 1006.42 1007.20 1007.93 1008.27 1009.07 1009.48 1009.87 1010.15 1010.26 1010.03 1010.00 1010.30 1010.68 1011.03 1010.93 1010.74 1010.11 1009.85 1009.45 1009.05 1008.79 1008.69 1009.00 1009.12 1009.00 1008.86 1008.97 1009.25 1009.75 1009.94 1010.43 1010.49 1010.42 1010.41
1013.61 1012.71 1012.46 1011.18 1010.29 1009.54 1008.78 1007.80 1006.67 1006.54 1007.19 1007.20 1007.77 1008.45 1009.16 1009.74 1009.93 1010.17 1010.42 1010.71 1010.95 1011.09 1011.28 1011.56 1011.61 1011.79 1011.58 1010.79 1010.11 1009.61 1007.89 1007.67 1007.58 1007.74 1007.80 1008.51 1009.41 1009.75 1010.06 1010.28 1010.46 1010.63 1010.62 1010.71 1010.94
Wind_Speed
17 15 15 15 14 14 16 17 17 14 12 12 12 11 12 13 13 4 9 14 12 20 6 6 2 5 2 3 2 4 4 9 7 6 7 6 5 24 2 13 2 3 8 7 8
17 17 16 15 15 14 15 15 17 17 14 12 11 10 10 11 7 12 19 15 18 4 5 4 3 4 2 4 4 5 7 9 6 9 10 3 3 14 6 3 3 2 5 2 1
18 18 17 16 16 15 14 15 16 18 15 13 11 9 8 6 4 10 13 27 21 17 6 7 3 1 7 4 5 4 6 9 18 13 12 10 7 18 7 4 1 5 4 2 3
18 18 18 17 16 16 15 13 16 16 16 13 10 8 8 1 4 3 5 6 24 12 7 4 4 3 6 8 8 3 8 10 13 10 12 8 11 21 21 11 4 3 4 6 6
18 19 20 18 17 17 16 14 14 16 14 14 9 7 2 1 14 6 4 11 12 11 11 7 5 5 5 7 5 6 11 8 16 16 7 9 15 23 9 19 6 3 5 5 5
16 18 19 20 19 17 16 15 12 13 14 13 8 5 2 5 7 7 9 11 10 11 10 10 8 8 4 7 8 8 19 19 11 17 6 9 9 8 10 10 7 4 4 5 2
16 16 18 19 19 19 17 16 15 14 14 10 8 5 5 17 3 4 7 10 7 13 8 7 9 4 3 6 16 12 8 8 17 11 10 9 6 7 7 8 9 9 7 6 6
18 18 18 19 19 20 19 17 17 18 11 5 6 3 11 6 5 8 7 6 9 14 8 10 12 7 7 7 5 9 5 11 12 9 8 11 9 8 10 7 11 10 7 7 5
20 19 20 22 21 21 18 19 20 12 4 7 4 3 12 9 5 12 10 9 9 10 9 10 6 8 1 4 5 3 6 6 7 8 6 7 5 11 8 8 10 11 9 7 6
21 22 22 20 20 20 18 19 11 2 5 6 6 3 7 5 5 4 7 14 6 4 4 5 4 1 3 5 3 5 3 0 4 5 3 4 9 7 5 8 10 10 9 8 8
23 23 23 21 19 15 10 5 2 2 3 12 9 6 4 4 4 6 6 4 4 2 4 4 4 5 8 7 7 3 5 4 4 8 11 15 12 12 6 4 3 4 3 5 8
23 24 25 22 21 15 2 4 7 6 7 19 17 11 9 5 3 7 7 6 4 6 1 5 7 10 7 7 7 9 5 6 7 5 2 7 10 6 7 6 8 9 9 10 4
23 23 24 25 27 1 5 10 2 7 2 6 10 8 7 6 4 8 11 7 4 5 6 7 11 7 9 10 10 11 8 5 6 3 5 5 5 2 3 3 4 6 3 5 11
21 22 22 26 1 1 6 8 7 6 3 6 6 7 5 3 4 6 9 7 5 9 5 7 12 8 11 13 9 1 3 3 7 5 1 4 3 4 4 5 4 3 9 11 9
22 23 19 12 6 3 8 6 1 4 3 3 6 4 8 8 2 6 5 3 7 5 3 7 3 6 7 5 7 6 8 6 5 5 4 4 5 8 3 4 5 7 6 9 9
24 23 21 1 2 12 9 10 3 3 5 4 5 5 7 5 4 2 5 4 4 3 4 8 5 4 4 9 5 9 6 9 6 4 3 5 6 6 4 6 4 3 7 8 7
26 27 13 4 7 2 4 3 4 2 5 4 6 7 10 7 6 5 6 5 5 3 2 4 4 4 2 1 7 7 7 4 5 5 5 2 3 9 2 8 9 9 8 7 7
29 29 5 8 8 3 4 5 2 6 9 6 4 11 9 8 7 9 6 5 6 2 1 3 4 1 1 3 2 3 6 7 6 2 4 6 4 6 8 7 8 8 8 6 7
27 4 4 7 10 4 5 2 6 5 1 5 7 7 11 11 6 12 9 9 7 9 7 5 4 2 5 3 3 2 5 6 6 1 2 4 1 7 3 8 6 6 5 7 7
7 4 6 4 9 4 4 6 6 1 2 3 2 5 2 5 5 2 5 1 2 1 5 4 1 3 4 5 4 5 3 3 3 3 3 4 4 5 4 6 6 6 7 8 9
2 5 6 7 6 4 4 7 5 3 4 3 1 2 2 2 2 2 4 1 2 5 2 4 4 4 4 1 4 3 1 4 5 6 5 1 5 2 6 7 9 9 10 4 7
4 4 3 3 2 3 4 5 3 6 4 3 2 0 2 3 3 2 3 2 2 3 2 3 5 3 6 4 4 4 7 6 7 6 5 5 7 1 5 4 8 7 9 7 7
4 5 7 5 3 4 5 4 3 15 5 3 3 5 4 4 3 3 4 5 9 6 4 4 2 3 8 7 6 2 2 3 3 3 9 8 6 4 8 7 9 7 5 5 6
3 5 5 3 1 3 4 3 2 15 3 5 5 6 6 5 6 2 2 7 5 3 6 5 3 6 7 4 4 2 2 5 2 1 4 5 4 11 9 6 5 3 5 6 6
2 4 1 4 4 7 4 3 3 3 4 6 7 6 5 3 5 3 7 6 6 9 5 5 2 2 4 5 3 5 7 5 9 10 5 4 6 10 7 6 3 4 4 6 6
2 3 5 4 5 6 3 3 7 2 3 3 7 6 6 4 3 1 3 3 2 6 4 5 2 1 4 5 5 9 9 14 15 15 12 11 9 4 3 4 6 5 4 5 5
3 4 1 4 5 4 5 9 3 6 6 6 8 5 5 3 2 3 4 4 4 1 2 1 3 3 5 4 5 6 15 16 15 16 14 12 3 2 1 5 4 4 4 5 6
Wind_Direction
340 341 341 339 340 339 339 335 331 320 314 315 317 319 320 318 317 315 255 221 194 233 263 342 133 201 166 247 221 156 159 217 217 219 249 12 84 284 315 322 87 137 144 190 175
336 335 336 337 335 336 336 332 332 324 314 312 316 320 325 324 306 254 242 218 224 184 165 190 192 164 190 211 212 161 205 222 218 235 264 277 181 260 50 212 295 354 343 33 108
332 331 331 331 331 329 332 331 327 328 319 308 309 316 321 323 283 245 225 222 211 206 216 169 244 197 186 205 230 202 218 217 248 250 263 264 5 282 321 281 11 26 112 97 55
331 329 326 325 326 324 325 325 325 327 322 309 302 306 310 280 259 239 322 212 196 188 190 170 178 156 188 202 220 232 217 217 247 246 250 304 210 231 233 250 173 274 278 144 122
328 327 323 323 323 321 319 319 321 320 317 310 290 298 1 229 251 262 77 134 161 161 187 183 162 167 209 198 224 198 252 224 233 246 202 228 256 250 256 273 258 287 79 106 109
323 320 320 320 320 317 315 311 310 310 308 305 279 276 208 268 232 161 139 143 161 170 190 180 190 208 279 228 176 214 223 244 246 240 223 203 233 164 212 220 248 213 236 169 132
317 314 313 315 315 316 315 312 309 307 304 288 255 238 252 240 297 148 181 177 178 186 168 206 201 145 171 278 230 235 267 261 250 247 229 196 235 219 208 217 233 243 238 229 207
316 315 312 313 315 315 314 313 306 304 298 249 219 236 251 239 238 260 217 241 184 204 233 192 194 200 168 258 246 196 189 244 268 195 232 144 241 240 232 200 229 230 224 233 210
318 315 313 318 316 313 313 308 302 294 291 172 174 204 264 297 183 220 200 224 198 207 243 246 202 193 178 224 6 21 203 181 259 189 189 157 225 237 223 211 256 219 209 212 236
318 319 319 319 315 314 315 300 272 77 128 174 257 327 262 244 215 196 201 222 221 206 255 206 55 350 11 73 234 256 247 52 213 263 177 211 232 246 226 197 210 193 198 202 212
321 320 319 317 315 315 328 337 99 92 238 200 191 240 262 248 150 216 219 203 238 133 208 267 101 228 249 218 228 239 253 247 282 267 226 226 217 236 187 194 236 269 247 226 220
323 321 319 316 313 312 284 251 225 133 280 225 233 251 283 293 243 223 181 164 155 217 222 346 248 227 252 288 282 279 265 272 264 267 154 172 205 209 173 197 186 209 227 229 87
319 313 320 321 318 161 188 233 138 14 295 275 198 219 228 170 226 201 158 185 186 227 227 193 250 250 242 260 265 273 190 223 206 346 6 69 4 171 283 348 295 204 132 87 139
314 313 323 331 322 269 236 256 229 193 30 273 188 239 174 145 280 202 183 153 200 231 240 236 266 261 256 238 206 188 254 68 52 79 211 60 262 304 268 294 9 82 110 117 118
314 312 316 323 278 270 248 11 260 69 354 199 169 178 145 163 197 202 172 157 212 257 30 267 286 339 326 250 178 213 121 114 120 114 96 332 96 266 316 28 89 107 119 131 130
314 311 319 317 207 242 307 321 43 93 255 245 138 157 137 219 266 46 143 143 183 231 250 244 254 254 225 314 258 152 73 33 44 81 57 219 133 273 236 167 173 144 136 132 123
313 309 300 235 226 124 289 37 62 166 285 175 188 153 172 197 225 210 164 171 182 153 255 330 277 269 269 347 16 73 69 5 357 17 228 103 68 234 300 159 149 153 142 138 134
314 310 233 208 242 293 23 55 192 257 230 291 130 161 185 190 220 188 166 185 245 170 196 198 318 10 226 117 155 49 137 148 176 179 275 318 237 283 111 107 119 135 152 156 162
321 308 259 237 212 119 80 124 219 227 351 356 326 166 218 210 204 186 179 202 200 179 183 172 232 25 49 42 103 321 62 173 109 81 80 247 273 35 91 117 129 163 177 201 211
317 314 262 218 137 93 97 231 242 247 87 41 308 32 106 358 146 63 164 6 313 99 158 212 270 8 14 46 30 100 168 63 31 139 238 273 241 172 165 171 189 206 217 238 238
355 327 257 151 113 73 189 229 300 178 147 128 78 346 2 84 45 105 215 260 118 32 40 124 110 279 46 91 189 2 19 113 114 130 183 217 272 179 175 199 206 230 228 272 34
351 313 281 7 97 205 198 220 312 274 179 173 157 177 53 33 140 146 127 61 349 105 46 320 131 168 240 247 228 220 208 164 136 211 216 161 256 183 134 271 251 324 95 80 74
314 267 299 121 201 252 270 251 284 302 217 119 101 79 47 34 67 77 79 40 55 42 159 177 24 53 343 351 8 33 272 107 124 98 209 204 255 299 315 336 65 82 56 64 76
322 315 307 30 78 318 335 309 61 281 73 80 118 78 70 42 19 18 50 41 34 75 68 73 137 158 184 186 176 283 298 348 94 124 243 214 256 274 259 118 103 51 67 72 74
219 258 291 336 327 321 291 300 299 329 22 42 46 77 122 71 13 66 11 5 34 3 43 83 173 201 248 258 212 225 256 272 278 238 222 249 228 262 121 135 117 96 65 50 25
277 354 345 282 279 319 299 312 297 71 38 49 99 72 74 108 146 130 61 40 15 10 54 352 217 89 280 287 285 286 235 230 231 234 251 266 285 66 105 97 89 63 42 19 347
329 328 145 285 345 333 356 319 168 123 49 99 127 107 73 97 114 194 183 215 219 251 113 54 132 91 256 326 297 287 248 244 233 226 226 234 131 200 90 115 106 61 18 343 333